Weather History for KI69 - January, 2014

Change the Weather History Date:

Friday, January 24, 2014

  Actual Average (KLUK) Record (KLUK)
Temperature  
Mean Temperature 17 °F -  
Max Temperature 26 °F 41 °F 70 °F (1967)
Min Temperature 10 °F 22 °F -15 °F (1963)
Degree Days  
Heating Degree Days 48    
Moisture  
Dew Point 2 °F    
Average Humidity 48    
Maximum Humidity 62    
Minimum Humidity 37    
Precipitation  
Precipitation 0.00 in - - ()
Sea Level Pressure  
Sea Level Pressure 30.14 in    
Wind  
Wind Speed 12 mph (SW)    
Max Wind Speed 17 mph    
Max Gust Speed 30 mph    
Visibility 10 miles    
Events      
Averages and records for this station are not official NWS values.
T = Trace of Precipitation, MM = Missing Value Source: NWS Daily Summary

Daily Weather History Graph

Daily Weather History Graph

Search for Another Location

Airport or City:

Trip Planner

Search our weather history database for the weather conditions in past years. The results will help you decide how hot, cold, wet, or windy it might be!

Date:

Astronomy

Jan. 24, 2014 Rise Set
Actual Time 7:49 AM EST 5:48 PM EST
Civil Twilight 7:20 AM EST 6:17 PM EST
Nautical Twilight 6:48 AM EST 6:49 PM EST
Astronomical Twilight 6:16 AM EST 7:21 PM EST
Moon 1:16 AM EST (1/24) 12:06 PM EST (1/24)
Length of Visible Light 10h 56m
Length of Day
9h 58m
Last Quarter, 45% of the Moon is Illuminated
Jan 24
Last Quarter
Jan 30
New
Feb 6
First Quarter
Feb 14
Full
Feb 22
Last Quarter

Hourly Weather History & Observations

Time (EST) Temp. Windchill Dew Point Humidity Pressure Visibility Wind Dir Wind Speed Gust Speed Precip Events Conditions
12:14 AM - - - N/A% - - North - - N/A   Unknown
12:34 AM - - - N/A% - - North - - N/A   Unknown
12:54 AM - - - N/A% - - North - - N/A   Unknown
1:14 AM - - - N/A% - - North - - N/A   Unknown
1:34 AM - - - N/A% - - North - - N/A   Unknown
1:54 AM - - - N/A% - - North - - N/A   Unknown
2:14 AM - - - N/A% - - North - - N/A   Unknown
2:34 AM - - - N/A% - - North - - N/A   Unknown
2:54 AM - - - N/A% - - North - - N/A   Unknown
3:14 AM - - - N/A% - - North - - N/A   Unknown
3:34 AM - - - N/A% - - North - - N/A   Unknown
3:54 AM - - - N/A% - - North - - N/A   Unknown
4:14 AM - - - N/A% - - North - - N/A   Unknown
4:34 AM - - - N/A% - - North - - N/A   Unknown
4:54 AM - - - N/A% - - North - - N/A   Unknown
5:14 AM - - - N/A% - - North - - N/A   Unknown
5:34 AM - - - N/A% - - North - - N/A   Unknown
5:54 AM - - - N/A% - - North - - N/A   Unknown
6:14 AM - - - N/A% - - North - - N/A   Unknown
6:34 AM - - - N/A% - - North - - N/A   Unknown
6:54 AM - - - N/A% - - North - - N/A   Unknown
7:14 AM - - - N/A% - - North - - N/A   Unknown
7:34 AM - - - N/A% - - North - - N/A   Unknown
7:54 AM - - - N/A% - - North - - N/A   Unknown
8:14 AM - - - N/A% - - North - - N/A   Unknown
8:34 AM - - - N/A% - - North - - N/A   Unknown
8:54 AM - - - N/A% - - North - - N/A   Unknown
9:14 AM - - - N/A% - - North - - N/A   Unknown
9:34 AM - - - N/A% - - North - - N/A   Unknown
9:54 AM - - - N/A% - - North - - N/A   Unknown
10:14 AM - - - N/A% - - North - - N/A   Unknown
10:34 AM - - - N/A% - - North - - N/A   Unknown
10:54 AM - - - N/A% - - North - - N/A   Unknown
11:14 AM - - - N/A% 30.47 in - SW 9.2 mph - N/A   Unknown
11:34 AM 10.4 °F -1.5 °F -0.4 °F 62% 30.46 in 10.0 mi SW 8.1 mph 18.4 mph N/A   Clear
11:54 AM 10.4 °F -5.4 °F -0.4 °F 62% 30.45 in 10.0 mi WSW 13.8 mph 18.4 mph N/A   Clear
12:14 PM 12.2 °F -3.7 °F -0.4 °F 57% 30.43 in 10.0 mi SW 15.0 mph 21.9 mph N/A   Clear
12:34 PM 12.2 °F -3.1 °F -0.4 °F 57% 30.41 in 10.0 mi SW 13.8 mph - N/A   Clear
12:54 PM 14.0 °F -0.2 °F -0.4 °F 53% 30.38 in 10.0 mi SW 12.7 mph 18.4 mph N/A   Clear
1:14 PM 14.0 °F 2.0 °F -0.4 °F 53% 30.37 in 10.0 mi SW 9.2 mph 19.6 mph N/A   Clear
1:34 PM 15.8 °F 2.1 °F -0.4 °F 49% 30.34 in 10.0 mi SW 12.7 mph 21.9 mph N/A   Clear
1:54 PM 17.6 °F 5.7 °F -0.4 °F 45% 30.32 in 10.0 mi SW 10.4 mph 21.9 mph N/A   Clear
2:14 PM 17.6 °F 3.2 °F -0.4 °F 45% 30.29 in 10.0 mi SSW 15.0 mph 19.6 mph N/A   Clear
2:34 PM 19.4 °F 7.2 °F -0.4 °F 42% 30.27 in 10.0 mi SSW 11.5 mph 19.6 mph N/A   Clear
2:54 PM 19.4 °F 6.6 °F 1.4 °F 46% 30.26 in 10.0 mi SSW 12.7 mph 18.4 mph N/A   Clear
3:14 PM 19.4 °F 7.9 °F 1.4 °F 46% 30.25 in 10.0 mi SW 10.4 mph 17.3 mph N/A   Clear
3:34 PM 19.4 °F 6.6 °F 3.2 °F 49% 30.24 in 10.0 mi SSW 12.7 mph 19.6 mph N/A   Clear
3:54 PM 19.4 °F 6.6 °F 3.2 °F 49% 30.21 in 10.0 mi SSW 12.7 mph 21.9 mph N/A   Clear
4:14 PM 19.4 °F 8.6 °F 3.2 °F 49% 30.19 in 10.0 mi South 9.2 mph 19.6 mph N/A   Clear
4:34 PM 19.4 °F 6.0 °F 3.2 °F 49% 30.17 in 10.0 mi SSW 13.8 mph 23.0 mph N/A   Clear
4:54 PM 19.4 °F 7.2 °F 3.2 °F 49% 30.15 in 10.0 mi SSW 11.5 mph 23.0 mph N/A   Clear
5:14 PM 19.4 °F 6.6 °F 3.2 °F 49% 30.14 in 10.0 mi SSW 12.7 mph 20.7 mph N/A   Scattered Clouds
5:34 PM 19.4 °F 6.6 °F 3.2 °F 49% 30.11 in 10.0 mi SSW 12.7 mph 21.9 mph N/A   Clear
5:54 PM 19.4 °F 6.0 °F 3.2 °F 49% 30.09 in 10.0 mi SSW 13.8 mph 21.9 mph N/A   Clear
6:14 PM 19.4 °F 5.5 °F 3.2 °F 49% 30.07 in 10.0 mi SSW 15.0 mph 23.0 mph N/A   Clear
6:34 PM 19.4 °F 8.6 °F 5.0 °F 54% 30.06 in 10.0 mi SSW 9.2 mph 17.3 mph N/A   Clear
6:54 PM 21.2 °F 8.3 °F 5.0 °F 50% 30.05 in 10.0 mi SSW 13.8 mph 23.0 mph N/A   Clear
7:14 PM 21.2 °F 10.1 °F 5.0 °F 50% 30.04 in 10.0 mi South 10.4 mph 17.3 mph N/A   Clear
7:34 PM 21.2 °F 8.9 °F 5.0 °F 50% 30.03 in 10.0 mi SSW 12.7 mph 19.6 mph N/A   Clear
7:54 PM 21.2 °F 8.9 °F 5.0 °F 50% 30.00 in 10.0 mi SSW 12.7 mph 23.0 mph N/A   Clear
8:14 PM 21.2 °F 6.8 °F 5.0 °F 50% 29.98 in 10.0 mi SSW 17.3 mph 26.5 mph N/A   Clear
8:34 PM 21.2 °F 7.8 °F 3.2 °F 46% 29.97 in 10.0 mi SSW 15.0 mph 27.6 mph N/A   Clear
8:54 PM 23.0 °F 9.6 °F 3.2 °F 43% 29.95 in 10.0 mi SSW 16.1 mph 29.9 mph N/A   Clear
9:14 PM 23.0 °F 11.1 °F 3.2 °F 43% 29.94 in 10.0 mi SW 12.7 mph 26.5 mph N/A   Clear
9:34 PM 23.0 °F 10.6 °F 3.2 °F 43% 29.93 in 10.0 mi SW 13.8 mph 25.3 mph N/A   Clear
9:54 PM 23.0 °F 10.1 °F 3.2 °F 43% 29.92 in 10.0 mi SW 15.0 mph 24.2 mph N/A   Clear
10:14 PM 23.0 °F 11.1 °F 3.2 °F 43% 29.91 in 10.0 mi SW 12.7 mph 28.8 mph N/A   Clear
10:34 PM 23.0 °F 9.2 °F 3.2 °F 43% 29.90 in 10.0 mi SW 17.3 mph 28.8 mph N/A   Clear
10:54 PM 23.0 °F 11.1 °F 3.2 °F 43% 29.90 in 10.0 mi WSW 12.7 mph 21.9 mph N/A   Clear
11:14 PM 24.8 °F 12.4 °F 3.2 °F 40% 29.90 in 10.0 mi SW 15.0 mph 25.3 mph N/A   Scattered Clouds
11:34 PM 24.8 °F 12.4 °F 3.2 °F 40% 29.87 in 10.0 mi SW 15.0 mph 29.9 mph N/A   Mostly Cloudy
11:54 PM 26.6 °F 13.8 °F 3.2 °F 37% 29.86 in 10.0 mi SW 17.3 mph 29.9 mph N/A   Mostly Cloudy